SY32-03

导读

SHIYAN 32-03(试验三十二号03星)是中国研制发射的技术试验卫星,隶属于试验卫星系列,由中国航天科技集团五院研发。该卫星于2025年11月8日在海阳发射场,搭载长征十一号HY6运载火箭,以一箭三星方式成功入轨,运行在高度440公里、倾角53°的低地球轨道,主要任务是开展空间新技术在轨验证试验,为后续航天技术应用积累数据。

基本信息
目录编号:
66379
目录名称:
SHIYAN 32-03
国际标识:
2025-255D
轨道中心:
EARTH
卫星名称:
SHIYAN 32-03
卫星全名:
SY32-03
卫星状态:
在轨 (已飞行310 天)
发射日期:
2025-11-08 UTC
国别 :
中国 (CN)
星等 :
--
该卫星已列入 空间交会检测服务 Space Conjunction Data Service (SCDS) ,当前飞行风险评估等级: 无高风险
轨道信息
数据来源 国际轨道数据
星历时间: 2026-09-13T23:14:10+0800
12小时前
查看轨道信息
半长轴: 6819.144km
偏心率: 0.0008329
轨道倾角: 52.996°
近地点辐角 105.311°
升交点赤经 314.690°
平近点角 254.881°
近地点: 435.327km
远地点: 446.687km
周期: 93.402分钟
每日圈数: 15.41729
详细信息
使用方式:
暂无
2D轨道图
3D轨道图
轨道高度分析图
轨道倾角分析图
轨道综合分析图
查看轨道综合分析图
交会数据列表
事件ID 空间交会对象 最接近时刻(TCA) 交会距离 交会风险概率(CRP) 交会风险指数(CRI) 操作
CDM_260915-033806-020606-637924
R5-S4 (60206)
2026-09-15T
03:38:54+0000
2.272 km
极远距离
2.103918E-6 低风险 0.41
与全量物体交会距离演化趋势 订阅飞行安全评估服务
与全量物体交会风险概率演化趋势 订阅飞行安全评估服务